Time,TemperatureF,DewpointF,PressureIn,WindDirection,WindDirectionDegrees,WindSpeedMPH,WindSpeedGustMPH,Humidity,HourlyPrecipIn,Conditions,Clouds,dailyrainin,SoftwareType,DateUTC
2013-02-28 00:01:00,31.0,30.0,-100.00,North,355,0.0,0.0,97,0.00,,,-99.99,,2013-02-28 06:01:00,
2013-02-28 00:11:00,31.0,30.0,-100.00,North,355,0.0,0.0,97,0.00,,,-99.99,,2013-02-28 06:11:00,
2013-02-28 00:22:00,31.0,30.0,-100.00,North,355,0.0,0.0,97,0.00,,,-99.99,,2013-02-28 06:22:00,
2013-02-28 00:52:00,30.0,29.0,-100.00,North,0,0.0,0.0,94,0.00,,,-99.99,,2013-02-28 06:52:00,
2013-02-28 01:01:00,30.0,29.0,-100.00,North,0,0.0,0.0,94,0.00,,,-99.99,,2013-02-28 07:01:00,
2013-02-28 01:11:00,30.0,29.0,-100.00,North,0,0.0,0.0,94,0.00,,,-99.99,,2013-02-28 07:11:00,
2013-02-28 01:21:00,30.0,29.0,-100.00,North,0,0.0,0.0,94,0.00,,,-99.99,,2013-02-28 07:21:00,
2013-02-28 01:52:00,30.0,28.0,-100.00,NNW,330,0.0,0.0,94,0.00,,,-99.99,,2013-02-28 07:52:00,
2013-02-28 02:01:00,30.0,28.0,-100.00,NNW,330,0.0,0.0,94,0.00,,,-99.99,,2013-02-28 08:01:00,
2013-02-28 02:11:00,30.0,28.0,-100.00,NNW,330,0.0,0.0,94,0.00,,,-99.99,,2013-02-28 08:11:00,
2013-02-28 02:22:00,30.0,28.0,-100.00,NNW,330,0.0,0.0,94,0.00,,,-99.99,,2013-02-28 08:22:00,
2013-02-28 02:53:00,29.0,28.0,-100.00,North,0,0.0,0.0,95,0.00,,,-99.99,,2013-02-28 08:53:00,
2013-02-28 03:03:00,29.0,28.0,-100.00,North,0,0.0,0.0,95,0.00,,,-99.99,,2013-02-28 09:03:00,
2013-02-28 03:11:00,29.0,28.0,-100.00,North,0,0.0,0.0,95,0.00,,,-99.99,,2013-02-28 09:11:00,
2013-02-28 03:22:00,29.0,28.0,-100.00,North,0,0.0,0.0,95,0.00,,,-99.99,,2013-02-28 09:22:00,
2013-02-28 03:52:00,29.0,28.0,-100.00,North,0,0.0,0.0,98,0.00,,,-99.99,,2013-02-28 09:52:00,
2013-02-28 04:02:00,29.0,28.0,-100.00,North,0,0.0,0.0,98,0.00,,,-99.99,,2013-02-28 10:02:00,
2013-02-28 04:11:00,29.0,28.0,-100.00,North,0,0.0,0.0,98,0.00,,,-99.99,,2013-02-28 10:11:00,
2013-02-28 04:22:00,29.0,28.0,-100.00,North,0,0.0,0.0,98,0.00,,,-99.99,,2013-02-28 10:22:00,
2013-02-28 04:52:00,29.0,28.0,-100.00,North,0,0.0,0.0,96,0.00,,,-99.99,,2013-02-28 10:52:00,
2013-02-28 05:01:00,29.0,28.0,-100.00,North,0,0.0,0.0,96,0.00,,,-99.99,,2013-02-28 11:01:00,
2013-02-28 05:11:00,29.0,28.0,-100.00,North,0,0.0,0.0,96,0.00,,,-99.99,,2013-02-28 11:11:00,
2013-02-28 05:22:00,29.0,28.0,-100.00,North,0,0.0,0.0,96,0.00,,,-99.99,,2013-02-28 11:22:00,
2013-02-28 05:52:00,29.0,28.0,-100.00,NW,320,0.0,0.0,96,0.00,,,-99.99,,2013-02-28 11:52:00,
2013-02-28 06:02:00,29.0,28.0,-100.00,NW,320,0.0,0.0,96,0.00,,,-99.99,,2013-02-28 12:02:00,
2013-02-28 06:11:00,29.0,28.0,-100.00,NW,320,0.0,0.0,96,0.00,,,-99.99,,2013-02-28 12:11:00,
2013-02-28 06:22:00,29.0,28.0,-100.00,NW,320,0.0,0.0,96,0.00,,,-99.99,,2013-02-28 12:22:00,
2013-02-28 06:52:00,29.0,28.0,-100.00,NW,325,0.0,0.0,98,0.00,,,-99.99,,2013-02-28 12:52:00,
2013-02-28 07:02:00,29.0,28.0,-100.00,NW,325,0.0,0.0,98,0.00,,,-99.99,,2013-02-28 13:02:00,
2013-02-28 07:11:00,29.0,28.0,-100.00,NW,325,0.0,0.0,98,0.00,,,-99.99,,2013-02-28 13:11:00,
2013-02-28 07:22:00,29.0,28.0,-100.00,NW,325,0.0,0.0,98,0.00,,,-99.99,,2013-02-28 13:22:00,
2013-02-28 07:52:00,29.0,28.0,-100.00,North,5,0.0,0.0,95,0.00,,,-99.99,,2013-02-28 13:52:00,
2013-02-28 08:01:00,29.0,28.0,-100.00,North,5,0.0,0.0,95,0.00,,,-99.99,,2013-02-28 14:01:00,
2013-02-28 08:11:00,29.0,28.0,-100.00,North,5,0.0,0.0,95,0.00,,,-99.99,,2013-02-28 14:11:00,
2013-02-28 08:22:00,29.0,28.0,-100.00,North,5,0.0,0.0,95,0.00,,,-99.99,,2013-02-28 14:22:00,
2013-02-28 08:52:00,29.0,27.0,-100.00,North,0,0.0,0.0,90,0.00,,,-99.99,,2013-02-28 14:52:00,
2013-02-28 09:02:00,29.0,27.0,-100.00,North,0,0.0,0.0,90,0.00,,,-99.99,,2013-02-28 15:02:00,
2013-02-28 09:11:00,29.0,27.0,-100.00,North,0,0.0,0.0,90,0.00,,,-99.99,,2013-02-28 15:11:00,
2013-02-28 09:21:00,29.0,27.0,-100.00,North,0,0.0,0.0,90,0.00,,,-99.99,,2013-02-28 15:21:00,
2013-02-28 09:42:00,30.0,27.0,-100.00,North,10,0.0,0.0,91,0.00,,,-99.99,,2013-02-28 15:42:00,
2013-02-28 09:52:00,30.0,27.0,-100.00,North,10,0.0,0.0,91,0.00,,,-99.99,,2013-02-28 15:52:00,
2013-02-28 10:02:00,30.0,27.0,-100.00,North,10,0.0,0.0,91,0.00,,,-99.99,,2013-02-28 16:02:00,
2013-02-28 10:11:00,30.0,27.0,-100.00,North,10,0.0,0.0,91,0.00,,,-99.99,,2013-02-28 16:11:00,
2013-02-28 10:22:00,30.0,27.0,-100.00,North,10,0.0,0.0,91,0.00,,,-99.99,,2013-02-28 16:22:00,
2013-02-28 10:52:00,31.0,25.0,-100.00,NNE,20,0.0,0.0,81,0.00,,,-99.99,,2013-02-28 16:52:00,
2013-02-28 11:02:00,31.0,25.0,-100.00,NNE,20,0.0,0.0,81,0.00,,,-99.99,,2013-02-28 17:02:00,
2013-02-28 11:12:00,31.0,25.0,-100.00,NNE,20,0.0,0.0,81,0.00,,,-99.99,,2013-02-28 17:12:00,
2013-02-28 11:22:00,31.0,25.0,-100.00,NNE,20,0.0,0.0,81,0.00,,,-99.99,,2013-02-28 17:22:00,
2013-02-28 11:53:00,30.0,24.0,-100.00,North,0,0.0,0.0,78,0.00,,,-99.99,,2013-02-28 17:53:00,
2013-02-28 12:02:00,30.0,24.0,-100.00,North,0,0.0,0.0,78,0.00,,,-99.99,,2013-02-28 18:02:00,
2013-02-28 12:11:00,30.0,24.0,-100.00,North,0,0.0,0.0,78,0.00,,,-99.99,,2013-02-28 18:11:00,
2013-02-28 12:22:00,30.0,24.0,-100.00,North,0,0.0,0.0,78,0.00,,,-99.99,,2013-02-28 18:22:00,
2013-02-28 12:52:00,31.0,23.0,-100.00,NE,45,0.0,0.0,73,0.00,,,-99.99,,2013-02-28 18:52:00,
2013-02-28 13:02:00,31.0,23.0,-100.00,NE,45,0.0,0.0,73,0.00,,,-99.99,,2013-02-28 19:02:00,
2013-02-28 13:11:00,31.0,23.0,-100.00,NE,45,0.0,0.0,73,0.00,,,-99.99,,2013-02-28 19:11:00,
2013-02-28 13:21:00,31.0,23.0,-100.00,NE,45,0.0,0.0,73,0.00,,,-99.99,,2013-02-28 19:21:00,
2013-02-28 13:52:00,30.0,22.0,-100.00,NNW,340,0.0,0.0,73,0.00,,,-99.99,,2013-02-28 19:52:00,
2013-02-28 14:01:00,30.0,22.0,-100.00,NNW,340,0.0,0.0,73,0.00,,,-99.99,,2013-02-28 20:01:00,
2013-02-28 14:12:00,30.0,22.0,-100.00,NNW,340,0.0,0.0,73,0.00,,,-99.99,,2013-02-28 20:12:00,
2013-02-28 14:22:00,30.0,22.0,-100.00,NNW,340,0.0,0.0,73,0.00,,,-99.99,,2013-02-28 20:22:00,
2013-02-28 14:52:00,31.0,23.0,-100.00,NNE,30,0.0,0.0,71,0.00,,,-99.99,,2013-02-28 20:52:00,
2013-02-28 15:02:00,31.0,23.0,-100.00,NNE,30,0.0,0.0,71,0.00,,,-99.99,,2013-02-28 21:02:00,
2013-02-28 15:11:00,31.0,23.0,-100.00,NNE,30,0.0,0.0,71,0.00,,,-99.99,,2013-02-28 21:11:00,
2013-02-28 15:22:00,31.0,23.0,-100.00,NNE,30,0.0,0.0,71,0.00,,,-99.99,,2013-02-28 21:22:00,
2013-02-28 15:52:00,31.0,21.0,-100.00,NNE,25,0.0,0.0,66,0.00,,,-99.99,,2013-02-28 21:52:00,
2013-02-28 16:01:00,31.0,21.0,-100.00,NNE,25,0.0,0.0,66,0.00,,,-99.99,,2013-02-28 22:01:00,
2013-02-28 16:11:00,31.0,21.0,-100.00,NNE,25,0.0,0.0,66,0.00,,,-99.99,,2013-02-28 22:11:00,
2013-02-28 16:22:00,31.0,21.0,-100.00,NNE,25,0.0,0.0,66,0.00,,,-99.99,,2013-02-28 22:22:00,
2013-02-28 16:52:00,31.0,20.0,-100.00,North,0,0.0,0.0,66,0.00,,,-99.99,,2013-02-28 22:52:00,
2013-02-28 17:01:00,31.0,20.0,-100.00,North,0,0.0,0.0,66,0.00,,,-99.99,,2013-02-28 23:01:00,
2013-02-28 17:11:00,31.0,20.0,-100.00,North,0,0.0,0.0,66,0.00,,,-99.99,,2013-02-28 23:11:00,
2013-02-28 17:22:00,31.0,20.0,-100.00,North,0,0.0,0.0,66,0.00,,,-99.99,,2013-02-28 23:22:00,
2013-02-28 17:42:00,30.0,20.0,-100.00,North,0,0.0,0.0,66,0.00,,,-99.99,,2013-02-28 23:42:00,
2013-02-28 17:53:00,30.0,20.0,-100.00,North,0,0.0,0.0,66,0.00,,,-99.99,,2013-02-28 23:53:00,
2013-02-28 18:01:00,30.0,20.0,-100.00,North,0,0.0,0.0,66,0.00,,,-99.99,,2013-03-01 00:01:00,
2013-02-28 18:11:00,30.0,20.0,-100.00,North,0,0.0,0.0,66,0.00,,,-99.99,,2013-03-01 00:11:00,
2013-02-28 18:22:00,30.0,20.0,-100.00,North,0,0.0,0.0,66,0.00,,,-99.99,,2013-03-01 00:22:00,
2013-02-28 18:52:00,29.0,20.0,-100.00,NNE,20,0.0,0.0,69,0.00,,,-99.99,,2013-03-01 00:52:00,
2013-02-28 19:01:00,29.0,20.0,-100.00,NNE,20,0.0,0.0,69,0.00,,,-99.99,,2013-03-01 01:01:00,
2013-02-28 19:11:00,29.0,20.0,-100.00,NNE,20,0.0,0.0,69,0.00,,,-99.99,,2013-03-01 01:11:00,
2013-02-28 19:21:00,29.0,20.0,-100.00,NNE,20,0.0,0.0,69,0.00,,,-99.99,,2013-03-01 01:21:00,
2013-02-28 19:52:00,29.0,18.0,-100.00,NE,50,0.0,0.0,66,0.00,,,-99.99,,2013-03-01 01:52:00,
2013-02-28 20:01:00,29.0,18.0,-100.00,NE,50,0.0,0.0,66,0.00,,,-99.99,,2013-03-01 02:01:00,
2013-02-28 20:11:00,29.0,18.0,-100.00,NE,50,0.0,0.0,66,0.00,,,-99.99,,2013-03-01 02:11:00,
2013-02-28 20:21:00,29.0,18.0,-100.00,NE,50,0.0,0.0,66,0.00,,,-99.99,,2013-03-01 02:21:00,
2013-02-28 20:52:00,27.0,18.0,-100.00,NE,50,0.0,0.0,68,0.00,,,-99.99,,2013-03-01 02:52:00,
2013-02-28 21:02:00,27.0,18.0,-100.00,NE,50,0.0,0.0,68,0.00,,,-99.99,,2013-03-01 03:02:00,
2013-02-28 21:11:00,27.0,18.0,-100.00,NE,50,0.0,0.0,68,0.00,,,-99.99,,2013-03-01 03:11:00,
2013-02-28 21:21:00,27.0,18.0,-100.00,NE,50,0.0,0.0,68,0.00,,,-99.99,,2013-03-01 03:21:00,
2013-02-28 21:52:00,27.0,16.0,-100.00,NE,35,0.0,0.0,64,0.00,,,-99.99,,2013-03-01 03:52:00,
2013-02-28 22:01:00,27.0,16.0,-100.00,NE,35,0.0,0.0,64,0.00,,,-99.99,,2013-03-01 04:01:00,
2013-02-28 22:11:00,27.0,16.0,-100.00,NE,35,0.0,0.0,64,0.00,,,-99.99,,2013-03-01 04:11:00,
2013-02-28 22:21:00,27.0,16.0,-100.00,NE,35,0.0,0.0,64,0.00,,,-99.99,,2013-03-01 04:21:00,
2013-02-28 22:52:00,26.0,14.0,-100.00,NE,50,0.0,0.0,62,0.00,,,-99.99,,2013-03-01 04:52:00,
2013-02-28 23:02:00,26.0,14.0,-100.00,NE,50,0.0,0.0,62,0.00,,,-99.99,,2013-03-01 05:02:00,
2013-02-28 23:11:00,26.0,14.0,-100.00,NE,50,0.0,0.0,62,0.00,,,-99.99,,2013-03-01 05:11:00,
2013-02-28 23:22:00,26.0,14.0,-100.00,NE,50,0.0,0.0,62,0.00,,,-99.99,,2013-03-01 05:22:00,
2013-02-28 23:53:00,24.0,14.0,-100.00,NE,45,0.0,0.0,65,0.00,,,-99.99,,2013-03-01 05:53:00,